Location: Shepherdstown, WV
(39.4326°N, 77.8042°W)
Time: 23:25:46
(UTC-04:00)

Tiangong - Pass Details

Date: 02 July 2021
Orbit: 374 x 386 km, 41.5° (Epoch: 27 July)

Event Time Altitude Azimuth Distance (km) Brightness Sun altitude
Exits shadow 04:07:07 10° 149° (SSE) 1,362 3.7 -15.8°
Drops below altitude 10° 04:07:10 10° 148° (SSE) 1,379 3.7 -15.8°
Sets 04:09:24 0° 136° (SE) 2,230 4.9 -15.5°
